Year,Month,Day,Hour,Minute,Value (Times are PST for temperature in C)
2010,07,21,09,11,19.80
2010,07,21,09,12,19.80
2010,07,21,09,13,19.80
2010,07,21,09,14,19.80
2010,07,21,09,15,19.80
2010,07,21,09,16,19.70
2010,07,21,09,17,19.60
2010,07,21,09,18,19.50
2010,07,21,09,19,19.40
2010,07,21,09,20,19.20
2010,07,21,09,21,19.00
2010,07,21,09,22,18.90
2010,07,21,09,23,18.80
2010,07,21,09,24,18.80
2010,07,21,09,25,18.80
2010,07,21,09,26,18.80
2010,07,21,09,27,18.80
2010,07,21,09,28,18.90
2010,07,21,09,29,18.90
2010,07,21,09,30,18.90
2010,07,21,09,31,19.00
2010,07,21,09,32,19.10
2010,07,21,09,33,19.20
2010,07,21,09,34,19.30
2010,07,21,09,35,19.30
2010,07,21,09,36,19.40
2010,07,21,09,37,19.50
2010,07,21,09,38,19.60
2010,07,21,09,39,19.70
2010,07,21,09,40,19.80
2010,07,21,09,41,19.90
2010,07,21,09,42,19.90
2010,07,21,09,43,20.10
2010,07,21,09,44,20.20
2010,07,21,09,45,20.30
2010,07,21,09,46,20.40
2010,07,21,09,47,20.50
2010,07,21,09,48,20.70
2010,07,21,09,49,20.80
2010,07,21,09,50,21.00
2010,07,21,09,51,21.10
2010,07,21,09,52,21.20
2010,07,21,09,53,21.30
2010,07,21,09,54,21.40
2010,07,21,09,55,21.50
2010,07,21,09,56,21.60
2010,07,21,09,57,21.70
2010,07,21,09,58,21.80
2010,07,21,09,59,21.80
2010,07,21,10,00,21.90
2010,07,21,10,01,22.00
2010,07,21,10,02,22.10
2010,07,21,10,03,22.10
2010,07,21,10,04,22.00
2010,07,21,10,05,22.00
2010,07,21,10,06,22.00
2010,07,21,10,07,22.10
2010,07,21,10,08,22.10
2010,07,21,10,09,22.00
2010,07,21,10,10,21.90
2010,07,21,10,11,21.80
2010,07,21,10,12,21.70
2010,07,21,10,13,21.70
2010,07,21,10,14,21.70
2010,07,21,10,15,21.70
2010,07,21,10,16,21.80
2010,07,21,10,17,21.80
2010,07,21,10,18,21.90
2010,07,21,10,19,22.00
2010,07,21,10,20,22.10
2010,07,21,10,21,22.10
2010,07,21,10,22,22.10
2010,07,21,10,23,22.00
2010,07,21,10,24,21.90
2010,07,21,10,25,21.80
2010,07,21,10,26,21.80
2010,07,21,10,27,21.80
2010,07,21,10,28,21.80
2010,07,21,10,29,21.80
2010,07,21,10,30,21.70
2010,07,21,10,31,21.70
2010,07,21,10,32,21.60
2010,07,21,10,33,21.60
2010,07,21,10,34,21.60
2010,07,21,10,35,21.60
2010,07,21,10,36,21.70
2010,07,21,10,37,21.80
2010,07,21,10,38,21.80
2010,07,21,10,39,21.70
2010,07,21,10,40,21.70
2010,07,21,10,41,21.70
2010,07,21,10,42,21.80
2010,07,21,10,43,21.80
2010,07,21,10,44,21.80
2010,07,21,10,45,21.80
2010,07,21,10,46,21.80
2010,07,21,10,47,21.80
2010,07,21,10,48,21.90
2010,07,21,10,49,22.00
2010,07,21,10,50,22.10
2010,07,21,10,51,22.20
2010,07,21,10,52,22.30
2010,07,21,10,53,22.30
2010,07,21,10,54,22.40
2010,07,21,10,55,22.40
2010,07,21,10,56,22.40
2010,07,21,10,57,22.50
2010,07,21,10,58,22.50
2010,07,21,10,59,22.60
2010,07,21,11,00,22.60
2010,07,21,11,01,22.60
2010,07,21,11,02,22.70
2010,07,21,11,03,22.70
2010,07,21,11,04,22.70
2010,07,21,11,05,22.70
2010,07,21,11,06,22.70
2010,07,21,11,07,22.80
2010,07,21,11,08,22.80
2010,07,21,11,09,22.90
2010,07,21,11,10,22.90
2010,07,21,11,11,23.00
2010,07,21,11,12,23.00
2010,07,21,11,13,23.10
2010,07,21,11,14,23.10
2010,07,21,11,15,23.20
2010,07,21,11,16,23.20
2010,07,21,11,17,23.30
2010,07,21,11,18,23.30
2010,07,21,11,19,23.30
2010,07,21,11,20,23.30
2010,07,21,11,21,23.30
2010,07,21,11,22,23.30
2010,07,21,11,23,23.30
2010,07,21,11,24,23.30
2010,07,21,11,25,23.30
2010,07,21,11,26,23.40
2010,07,21,11,27,23.30
2010,07,21,11,28,23.30
2010,07,21,11,29,23.30
2010,07,21,11,30,23.40
2010,07,21,11,31,23.30
2010,07,21,11,32,23.20
2010,07,21,11,33,23.20
2010,07,21,11,34,23.10
2010,07,21,11,35,23.00
2010,07,21,11,36,23.00
2010,07,21,11,37,22.90
2010,07,21,11,38,22.90
2010,07,21,11,39,22.90
2010,07,21,11,40,22.90
2010,07,21,11,41,23.00
2010,07,21,11,42,23.00
2010,07,21,11,43,23.10
2010,07,21,11,44,23.10
2010,07,21,11,45,23.10
2010,07,21,11,46,23.10
2010,07,21,11,47,23.10
2010,07,21,11,48,23.10
2010,07,21,11,49,23.00
2010,07,21,11,50,22.90
2010,07,21,11,51,22.90
2010,07,21,11,52,22.90
2010,07,21,11,53,22.90
2010,07,21,11,54,22.90
2010,07,21,11,55,23.00
2010,07,21,11,56,23.00
2010,07,21,11,57,22.90
2010,07,21,11,58,22.90
2010,07,21,11,59,22.90
2010,07,21,12,00,22.90
2010,07,21,12,01,22.90
2010,07,21,12,02,22.90
2010,07,21,12,03,22.90
2010,07,21,12,04,22.90
2010,07,21,12,05,22.90
2010,07,21,12,06,22.90
2010,07,21,12,07,22.80
2010,07,21,12,08,22.70
2010,07,21,12,09,22.60
2010,07,21,12,10,22.50
2010,07,21,12,11,22.40
2010,07,21,12,12,22.40
2010,07,21,12,13,22.40
2010,07,21,12,14,22.30
2010,07,21,12,15,22.30
2010,07,21,12,16,22.20
2010,07,21,12,17,22.20
2010,07,21,12,18,22.30
2010,07,21,12,19,22.30
2010,07,21,12,20,22.30
2010,07,21,12,21,22.40
2010,07,21,12,22,22.40
2010,07,21,12,23,22.40
2010,07,21,12,24,22.40
2010,07,21,12,25,22.40
2010,07,21,12,26,22.50
2010,07,21,12,27,22.30
2010,07,21,12,28,22.20
2010,07,21,12,29,22.10
2010,07,21,12,30,22.20
2010,07,21,12,31,22.20
2010,07,21,12,32,22.30
2010,07,21,12,33,22.40
2010,07,21,12,34,22.50
2010,07,21,12,35,22.70
2010,07,21,12,36,22.80
2010,07,21,12,37,22.80
2010,07,21,12,38,22.80
2010,07,21,12,39,22.80
2010,07,21,12,40,22.80
2010,07,21,12,41,22.80
2010,07,21,12,42,22.80
2010,07,21,12,43,22.80
2010,07,21,12,44,22.80
2010,07,21,12,45,22.90
2010,07,21,12,46,22.90
2010,07,21,12,47,22.80
2010,07,21,12,48,22.70
2010,07,21,12,49,22.70
2010,07,21,12,50,22.80
2010,07,21,12,51,22.90
2010,07,21,12,52,22.90
2010,07,21,12,53,22.90
2010,07,21,12,54,22.90
2010,07,21,12,55,23.00
2010,07,21,12,56,23.10
2010,07,21,12,57,23.20
2010,07,21,12,58,23.20
2010,07,21,12,59,23.10
2010,07,21,13,00,23.10
2010,07,21,13,01,23.10
2010,07,21,13,02,23.00
2010,07,21,13,03,23.00
2010,07,21,13,04,22.90
2010,07,21,13,05,22.90
2010,07,21,13,06,22.80
2010,07,21,13,07,22.80
2010,07,21,13,08,22.80
2010,07,21,13,09,22.80
2010,07,21,13,10,22.80
2010,07,21,13,11,22.90
2010,07,21,13,12,23.00
2010,07,21,13,13,23.10
2010,07,21,13,14,23.10
2010,07,21,13,15,23.20
2010,07,21,13,16,23.20
2010,07,21,13,17,23.10
2010,07,21,13,18,23.00
2010,07,21,13,19,22.90
2010,07,21,13,20,22.80
2010,07,21,13,21,22.70
2010,07,21,13,22,22.60
2010,07,21,13,23,22.50
2010,07,21,13,24,22.30
2010,07,21,13,25,22.20
2010,07,21,13,26,22.20
2010,07,21,13,27,22.10
2010,07,21,13,28,22.10
2010,07,21,13,29,22.00
2010,07,21,13,30,22.00
2010,07,21,13,31,21.90
2010,07,21,13,32,22.00
2010,07,21,13,33,22.10
2010,07,21,13,34,22.20
2010,07,21,13,35,22.30
2010,07,21,13,36,22.40
2010,07,21,13,37,22.50
2010,07,21,13,38,22.50
2010,07,21,13,39,22.40
2010,07,21,13,40,22.30
2010,07,21,13,41,22.20
2010,07,21,13,42,22.10
2010,07,21,13,43,22.10
2010,07,21,13,44,22.00
2010,07,21,13,45,21.90
2010,07,21,13,46,21.80
2010,07,21,13,47,21.70
2010,07,21,13,48,21.50
2010,07,21,13,49,21.40
2010,07,21,13,50,21.40
2010,07,21,13,51,21.40
2010,07,21,13,52,21.40
2010,07,21,13,53,21.40
2010,07,21,13,54,21.50
2010,07,21,13,55,21.50
2010,07,21,13,56,21.40
2010,07,21,13,57,21.40
2010,07,21,13,58,21.40
2010,07,21,13,59,21.30
2010,07,21,14,00,21.30
2010,07,21,14,01,21.30
2010,07,21,14,02,21.20
2010,07,21,14,03,21.10
2010,07,21,14,04,21.10
2010,07,21,14,05,21.10
2010,07,21,14,06,21.10
2010,07,21,14,07,21.10
2010,07,21,14,08,21.00
2010,07,21,14,09,20.90
2010,07,21,14,10,21.00
2010,07,21,14,11,21.00
2010,07,21,14,12,21.00
2010,07,21,14,13,20.90
2010,07,21,14,14,21.00
2010,07,21,14,15,21.00
2010,07,21,14,16,21.00
2010,07,21,14,17,20.90
2010,07,21,14,18,20.90
2010,07,21,14,19,20.80
2010,07,21,14,20,20.70
2010,07,21,14,21,20.60
2010,07,21,14,22,20.50
2010,07,21,14,23,20.40
2010,07,21,14,24,20.40
2010,07,21,14,25,20.40
2010,07,21,14,26,20.40
2010,07,21,14,27,20.40
2010,07,21,14,28,20.40
2010,07,21,14,29,20.40
2010,07,21,14,30,20.30
2010,07,21,14,31,20.40
2010,07,21,14,32,20.40
2010,07,21,14,33,20.40
2010,07,21,14,34,20.30
2010,07,21,14,35,20.20
2010,07,21,14,36,20.20
2010,07,21,14,37,20.20
2010,07,21,14,38,20.30
2010,07,21,14,39,20.30
2010,07,21,14,40,20.40
2010,07,21,14,41,20.50
2010,07,21,14,42,20.60
2010,07,21,14,43,20.60
2010,07,21,14,44,20.60
2010,07,21,14,45,20.60
2010,07,21,14,46,20.50
2010,07,21,14,47,20.40
2010,07,21,14,48,20.40
2010,07,21,14,49,20.20
2010,07,21,14,50,20.00
2010,07,21,14,51,19.80
2010,07,21,14,52,19.70
2010,07,21,14,53,19.60
2010,07,21,14,54,19.60
2010,07,21,14,55,19.60
2010,07,21,14,56,19.60
2010,07,21,14,57,19.50
2010,07,21,14,58,19.50
2010,07,21,14,59,19.60
2010,07,21,15,00,19.60
2010,07,21,15,01,19.70
2010,07,21,15,02,19.70
2010,07,21,15,03,19.70
2010,07,21,15,04,19.80
2010,07,21,15,05,19.80
2010,07,21,15,06,19.90
2010,07,21,15,07,20.00
2010,07,21,15,08,20.00
2010,07,21,15,09,20.10
2010,07,21,15,10,20.20
2010,07,21,15,11,20.20
2010,07,21,15,12,20.20
2010,07,21,15,13,20.10
2010,07,21,15,14,20.00
2010,07,21,15,15,20.00
2010,07,21,15,16,20.00
2010,07,21,15,17,20.00
2010,07,21,15,18,20.00
2010,07,21,15,19,20.10
2010,07,21,15,20,20.10
2010,07,21,15,21,20.20
2010,07,21,15,22,20.20
2010,07,21,15,23,20.30
2010,07,21,15,24,20.30
2010,07,21,15,25,20.40
2010,07,21,15,26,20.40
2010,07,21,15,27,20.40
2010,07,21,15,28,20.50
2010,07,21,15,29,20.50
2010,07,21,15,30,20.60
2010,07,21,15,31,20.70
2010,07,21,15,32,20.80
2010,07,21,15,33,20.90
2010,07,21,15,34,20.90
2010,07,21,15,35,20.90
2010,07,21,15,36,20.80
2010,07,21,15,37,20.90
2010,07,21,15,38,20.90
2010,07,21,15,39,21.00
2010,07,21,15,40,21.10
2010,07,21,15,41,21.10
2010,07,21,15,42,21.10
2010,07,21,15,43,21.10
2010,07,21,15,44,21.10
2010,07,21,15,45,21.00
2010,07,21,15,46,21.00
2010,07,21,15,47,20.90
2010,07,21,15,48,20.80
2010,07,21,15,49,20.80
2010,07,21,15,50,20.80
2010,07,21,15,51,20.80
2010,07,21,15,52,20.80
2010,07,21,15,53,20.80
2010,07,21,15,54,20.80
2010,07,21,15,55,20.70
2010,07,21,15,56,20.50
2010,07,21,15,57,20.40
2010,07,21,15,58,20.30
2010,07,21,15,59,20.40
2010,07,21,16,00,20.40
2010,07,21,16,01,20.40
2010,07,21,16,02,20.50
2010,07,21,16,03,20.50
2010,07,21,16,04,20.50
2010,07,21,16,05,20.50
2010,07,21,16,06,20.50
2010,07,21,16,07,20.50
2010,07,21,16,08,20.60
2010,07,21,16,09,20.50
2010,07,21,16,10,20.50
2010,07,21,16,11,20.50
2010,07,21,16,12,20.50
2010,07,21,16,13,20.40
2010,07,21,16,14,20.40
2010,07,21,16,15,20.30
2010,07,21,16,16,20.20
2010,07,21,16,17,20.30
2010,07,21,16,18,20.30
2010,07,21,16,19,20.30
2010,07,21,16,20,20.20
2010,07,21,16,21,20.10
2010,07,21,16,22,20.10
2010,07,21,16,23,20.00
2010,07,21,16,24,20.00
2010,07,21,16,25,20.10
2010,07,21,16,26,20.10
2010,07,21,16,27,20.10
2010,07,21,16,28,20.10
2010,07,21,16,29,20.10
2010,07,21,16,30,20.20
2010,07,21,16,31,20.20
2010,07,21,16,32,20.10
2010,07,21,16,33,20.20
2010,07,21,16,34,20.20
2010,07,21,16,35,20.20
2010,07,21,16,36,20.10
2010,07,21,16,37,20.10
2010,07,21,16,38,20.00
2010,07,21,16,39,20.00
2010,07,21,16,40,20.00
2010,07,21,16,41,20.00
2010,07,21,16,42,19.90
2010,07,21,16,43,19.80
2010,07,21,16,44,19.80
2010,07,21,16,45,19.70
2010,07,21,16,46,19.70
2010,07,21,16,47,19.60
2010,07,21,16,48,19.60
2010,07,21,16,49,19.50
2010,07,21,16,50,19.50
2010,07,21,16,51,19.40
2010,07,21,16,52,19.30
2010,07,21,16,53,19.30
2010,07,21,16,54,19.30
2010,07,21,16,55,19.30
2010,07,21,16,56,19.30
2010,07,21,16,57,19.30
2010,07,21,16,58,19.30
2010,07,21,16,59,19.30
2010,07,21,17,00,19.30
2010,07,21,17,01,19.30
2010,07,21,17,02,19.30
2010,07,21,17,03,19.30
2010,07,21,17,04,19.30
2010,07,21,17,05,19.40
2010,07,21,17,06,19.50
2010,07,21,17,07,19.60
2010,07,21,17,08,19.60
2010,07,21,17,09,19.70
2010,07,21,17,10,19.80
2010,07,21,17,11,19.80
2010,07,21,17,12,19.80
2010,07,21,17,13,19.70
2010,07,21,17,14,19.80
2010,07,21,17,15,19.80
2010,07,21,17,16,19.80
2010,07,21,17,17,19.90
2010,07,21,17,18,20.00
2010,07,21,17,19,20.10
2010,07,21,17,20,20.20
2010,07,21,17,21,20.30
2010,07,21,17,22,20.50
2010,07,21,17,23,20.50
2010,07,21,17,24,20.60
2010,07,21,17,25,20.60
2010,07,21,17,26,20.60
2010,07,21,17,27,20.50
2010,07,21,17,28,20.50
2010,07,21,17,29,20.40
2010,07,21,17,30,20.40
2010,07,21,17,31,20.40
2010,07,21,17,32,20.40
2010,07,21,17,33,20.50
2010,07,21,17,34,20.50
2010,07,21,17,35,20.60
2010,07,21,17,36,20.50
2010,07,21,17,37,20.50
2010,07,21,17,38,20.40
2010,07,21,17,39,20.30
2010,07,21,17,40,20.20
2010,07,21,17,41,20.20
2010,07,21,17,42,20.10
2010,07,21,17,43,20.10
2010,07,21,17,44,20.10
2010,07,21,17,45,20.00
2010,07,21,17,46,20.00
2010,07,21,17,47,19.90
2010,07,21,17,48,19.80
2010,07,21,17,49,19.70
2010,07,21,17,50,19.60
2010,07,21,17,51,19.50
2010,07,21,17,52,19.40
2010,07,21,17,53,19.30
2010,07,21,17,54,19.30
2010,07,21,17,55,19.30
2010,07,21,17,56,19.40
2010,07,21,17,57,19.30
2010,07,21,17,58,19.30
2010,07,21,17,59,19.30
2010,07,21,18,00,19.30
2010,07,21,18,01,19.20
2010,07,21,18,02,19.10
2010,07,21,18,03,19.10
2010,07,21,18,04,19.10
2010,07,21,18,05,19.00
2010,07,21,18,06,19.00
2010,07,21,18,07,18.90
2010,07,21,18,08,18.90
2010,07,21,18,09,18.90
2010,07,21,18,10,18.90
2010,07,21,18,11,18.80
2010,07,21,18,12,18.80
2010,07,21,18,13,18.80
2010,07,21,18,14,18.80
2010,07,21,18,15,18.90
2010,07,21,18,16,18.90
2010,07,21,18,17,18.90
2010,07,21,18,18,19.00
2010,07,21,18,19,19.00
2010,07,21,18,20,18.90
2010,07,21,18,21,18.90
2010,07,21,18,22,18.90
2010,07,21,18,23,18.80
2010,07,21,18,24,18.70
2010,07,21,18,25,18.70
2010,07,21,18,26,18.60
2010,07,21,18,27,18.50
2010,07,21,18,28,18.50
2010,07,21,18,29,18.50
2010,07,21,18,30,18.50
2010,07,21,18,31,18.50
2010,07,21,18,32,18.50
2010,07,21,18,33,18.40
2010,07,21,18,34,18.40
2010,07,21,18,35,18.40
2010,07,21,18,36,18.40
2010,07,21,18,37,18.40
2010,07,21,18,38,18.40
2010,07,21,18,39,18.40
2010,07,21,18,40,18.50
2010,07,21,18,41,18.50
2010,07,21,18,42,18.50
2010,07,21,18,43,18.50
2010,07,21,18,44,18.60
2010,07,21,18,45,18.50
2010,07,21,18,46,18.50
2010,07,21,18,47,18.50
2010,07,21,18,48,18.40
2010,07,21,18,49,18.40
2010,07,21,18,50,18.40
2010,07,21,18,51,18.40
2010,07,21,18,52,18.30
2010,07,21,18,53,18.30
2010,07,21,18,54,18.40
2010,07,21,18,55,18.40
2010,07,21,18,56,18.30
2010,07,21,18,57,18.30
2010,07,21,18,58,18.30
2010,07,21,18,59,18.30
2010,07,21,19,00,18.30
2010,07,21,19,01,18.30
2010,07,21,19,02,18.30
2010,07,21,19,03,18.30
2010,07,21,19,04,18.30
2010,07,21,19,05,18.30
2010,07,21,19,06,18.30
2010,07,21,19,07,18.30
2010,07,21,19,08,18.40
2010,07,21,19,09,18.40
2010,07,21,19,10,18.50
2010,07,21,19,11,18.50
2010,07,21,19,12,18.60
2010,07,21,19,13,18.60
2010,07,21,19,14,18.70
2010,07,21,19,15,18.70
2010,07,21,19,16,18.70
2010,07,21,19,17,18.80
2010,07,21,19,18,18.80
2010,07,21,19,19,18.90
2010,07,21,19,20,18.90
2010,07,21,19,21,18.90
2010,07,21,19,22,19.00
2010,07,21,19,23,19.00
2010,07,21,19,24,19.10
2010,07,21,19,25,19.10
2010,07,21,19,26,19.20
2010,07,21,19,27,19.20
2010,07,21,19,28,19.20
2010,07,21,19,29,19.20
2010,07,21,19,30,19.20
2010,07,21,19,31,19.20
2010,07,21,19,32,19.20
2010,07,21,19,33,19.20
2010,07,21,19,34,19.20
2010,07,21,19,35,19.20
2010,07,21,19,36,19.20
2010,07,21,19,37,19.20
2010,07,21,19,38,19.20
